Temperature
23 20 20 21 21 23 23 23 23 24 24 23 22 21 21 21 21 20 20 20 21 21 21 22 22 22 23 23 22 22 22 21 21 20 20 20 19 19 19 18 18 18 18 17
20 21 22 22 22 22 22 23 23 24 23 23 22 21 20 20 20 19 19 19 20 20 21 22 22 23 23 23 23 23 22 21 21 20 20 20 19 19 18 18 17 17 17 17
22 22 23 24 23 23 23 23 24 24 23 22 23 21 20 19 19 19 19 19 20 21 22 22 23 23 23 23 23 22 22 21 21 20 20 19 19 18 18 17 17 17 16 16
22 23 24 25 24 24 23 24 24 23 22 20 21 20 20 19 18 18 18 19 20 21 22 23 23 23 23 23 22 22 21 21 20 20 19 19 18 17 17 16 16 16 16 16
23 24 24 25 25 25 24 22 22 21 21 19 19 19 19 19 19 18 18 19 20 22 22 23 23 23 22 22 22 21 21 20 20 19 19 18 17 17 16 16 16 16 16 16
23 24 24 25 24 24 23 21 19 17 17 19 20 19 19 18 19 19 19 20 21 22 22 22 22 22 22 21 21 21 21 20 20 19 18 18 17 16 16 16 15 15 15 15
22 23 23 24 24 23 21 19 18 18 17 18 18 19 18 19 19 19 19 20 21 22 22 22 22 22 21 21 21 21 20 20 19 19 18 17 17 16 15 15 15 15 15 15
22 21 23 24 24 23 22 19 18 19 18 17 18 19 19 19 19 20 20 20 20 21 21 21 22 22 22 21 21 21 20 20 19 19 18 17 17 16 15 15 14 14 14 14
21 21 23 24 23 23 21 19 18 16 17 17 17 18 18 18 18 17 17 18 18 19 20 20 21 21 21 21 21 20 20 19 19 18 18 17 16 16 15 15 14 14 14 13
21 22 22 22 23 22 21 17 15 16 17 17 18 18 16 15 15 15 14 15 15 17 18 19 19 20 20 20 20 19 19 18 18 18 17 17 16 15 15 14 14 14 13 13
21 20 21 20 21 21 21 19 15 14 15 16 16 16 16 14 13 13 13 13 14 15 16 16 17 17 18 18 18 18 18 17 17 17 16 16 16 15 15 14 14 14 13 13
18 17 18 19 19 19 20 19 16 17 17 14 14 14 15 13 12 12 12 12 13 13 14 15 16 16 16 16 16 16 16 16 16 16 16 16 15 15 15 14 14 13 13 13
17 17 18 18 18 19 20 19 17 15 14 13 14 15 14 13 12 12 12 12 12 13 13 14 14 15 15 15 15 15 15 15 15 15 15 15 15 15 14 14 13 13 13 12
17 17 18 19 18 19 19 19 17 15 15 14 14 14 13 12 11 11 12 12 11 12 12 12 13 13 13 13 13 13 14 14 14 14 14 15 15 15 14 14 13 13 12 12
18 18 18 17 18 19 18 18 17 16 15 14 14 13 11 11 11 11 11 11 11 10 11 11 11 11 11 12 12 12 12 12 12 13 13 14 14 14 14 13 13 13 12 12
16 18 18 18 19 18 18 17 16 14 14 13 12 11 11 11 11 10 10 10 10 10 10 10 10 10 10 11 11 11 11 11 11 11 12 12 13 13 13 13 13 12 12 12
15 16 17 16 17 18 16 14 14 12 12 11 12 10 10 10 10 9 9 9 9 9 9 10 10 10 10 10 10 10 10 10 10 10 11 11 11 12 12 12 12 12 12 12
14 14 14 15 17 17 13 13 13 12 11 11 10 10 9 9 8 8 9 9 9 9 9 10 10 10 10 10 10 10 10 10 10 10 10 10 10 11 11 11 11 11 11 11
13 14 13 14 16 15 14 13 12 12 11 10 9 9 9 8 8 9 10 10 9 9 9 9 10 10 10 10 10 10 10 10 9 9 9 9 9 10 10 10 11 11 11 11
12 12 13 14 16 15 12 12 12 12 11 9 9 9 9 8 7 8 10 9 9 9 9 9 10 10 10 10 10 10 10 9 9 9 9 9 9 9 9 9 10 10 10 11
13 12 12 13 14 12 10 10 12 11 10 10 9 9 9 8 7 8 9 9 9 9 9 9 9 9 9 10 9 9 9 9 9 9 9 9 9 8 8 9 9 9 10 10
12 12 12 12 13 12 9 10 10 9 10 10 9 9 9 8 8 9 9 9 9 9 9 9 8 9 9 9 9 9 9 9 9 9 9 9 8 8 8 8 8 8 9 10
10 10 10 10 10 9 10 10 11 10 10 9 9 9 9 8 8 8 8 8 8 8 8 8 8 8 8 8 8 8 8 8 8 8 8 8 8 8 8 8 8 8 8 9
9 10 10 9 9 10 10 11 11 10 9 9 9 9 9 8 8 8 8 8 8 8 8 8 7 7 7 7 7 7 7 7 7 7 8 8 8 8 8 7 7 7 7 8
8 9 9 9 9 10 11 11 10 9 9 9 9 9 9 8 8 8 8 8 8 7 7 7 7 7 7 7 7 7 7 7 6 7 7 7 7 7 7 7 7 7 7 8
8 9 9 9 10 9 10 10 9 9 9 9 9 8 8 8 8 8 7 7 7 7 7 7 7 6 6 6 6 6 6 6 6 6 6 6 6 7 7 7 7 7 7 8
Wind_Speed
4 4 3 5 6 3 1 1 3 4 4 5 5 4 6 6 4 5 5 6 7 6 4 5 7 8 8 7 8 8 8 6 4 3 3 3 3 3 3 3 4 5 5 6
5 4 7 5 4 3 2 1 2 4 5 4 3 4 5 5 2 1 4 6 7 6 5 4 6 6 7 7 7 6 6 5 5 3 2 1 1 2 2 3 4 5 5 5
4 6 3 1 3 4 2 3 2 2 5 6 3 6 5 4 4 4 3 4 5 7 8 6 5 5 5 6 7 6 6 5 4 2 1 1 2 2 3 3 4 5 6 7
3 5 3 2 1 4 2 3 2 1 2 3 3 2 5 4 4 2 1 4 5 6 6 6 6 6 7 6 5 4 4 3 2 2 2 2 1 2 3 3 4 6 6 7
5 4 3 2 2 2 3 4 4 2 3 3 4 1 7 4 2 3 5 7 8 8 8 8 8 8 6 4 4 4 3 3 2 2 3 2 2 3 3 4 6 6 6 7
5 4 2 2 2 3 4 6 7 6 5 3 3 0 5 4 6 6 7 9 9 9 8 8 7 5 4 3 4 4 4 4 3 3 3 3 3 3 4 5 6 6 6 6
8 8 6 2 4 6 7 7 6 7 6 4 4 2 7 6 6 6 8 9 9 8 7 7 7 6 5 6 6 6 5 4 4 3 3 3 4 3 4 5 5 6 6 6
2 7 5 3 1 2 2 7 6 3 4 5 5 4 6 4 5 3 2 2 3 5 5 6 6 5 5 6 6 5 5 5 4 4 4 3 3 2 3 4 4 5 5 7
4 6 6 3 3 4 4 3 6 6 3 2 6 7 8 9 12 10 7 7 7 7 7 6 5 4 3 3 2 2 3 4 4 4 4 4 4 3 4 4 4 4 5 7
7 5 6 7 5 5 2 8 6 5 4 4 5 4 5 10 11 11 10 10 10 10 11 10 9 9 8 7 6 5 4 4 4 5 5 4 5 4 4 3 4 5 6 6
4 4 6 7 4 4 3 4 5 4 4 5 5 5 1 4 6 7 9 9 10 11 12 11 11 10 10 10 10 8 7 7 7 6 6 6 6 5 4 4 4 4 5 6
4 5 2 6 6 2 1 3 6 2 3 4 4 6 4 5 5 6 8 9 9 11 11 12 12 12 13 12 11 10 9 9 8 8 7 8 7 6 5 5 5 4 5 5
7 6 3 8 7 4 1 2 4 5 4 5 5 5 3 5 6 7 7 8 9 11 12 12 13 13 12 12 11 10 10 10 10 9 8 8 8 8 7 6 5 4 4 4
6 5 6 7 9 5 4 3 3 6 4 5 8 5 3 5 6 7 8 8 8 9 10 11 11 10 10 10 10 10 11 10 11 10 9 9 10 9 8 7 6 5 4 3
5 4 7 8 7 2 3 4 3 2 4 6 2 4 4 5 6 6 7 8 10 11 12 12 11 10 10 10 10 10 11 11 11 11 11 10 10 8 8 7 7 6 4 3
3 3 2 4 4 2 0 5 4 5 5 3 6 5 6 5 7 8 9 10 11 12 13 13 12 12 12 12 12 12 12 11 11 11 11 11 9 7 8 9 8 7 6 4
1 4 2 4 4 2 4 7 4 5 5 4 3 3 7 10 13 12 11 10 11 13 14 14 14 12 12 12 11 11 11 11 10 10 10 10 9 8 8 8 8 9 8 5
5 4 3 1 2 1 2 4 6 5 4 5 4 5 7 9 12 11 9 8 10 12 14 15 14 14 13 12 12 11 11 11 10 10 10 10 10 10 8 7 9 10 7 7
3 5 3 2 0 2 3 4 6 4 1 4 6 9 10 10 9 7 7 8 10 12 14 14 14 14 13 15 14 12 12 11 11 11 10 10 9 10 9 9 9 10 9 9
7 6 5 3 1 1 2 8 10 4 2 2 6 10 11 9 8 7 8 11 15 16 14 14 13 13 13 15 12 11 13 12 13 12 11 10 9 9 10 10 10 9 10 11
7 6 5 3 1 2 4 11 8 2 5 8 9 10 10 8 9 12 14 16 17 17 17 16 14 13 13 14 11 12 13 14 15 13 11 11 10 9 10 9 8 8 10 12
2 3 4 3 3 2 6 6 4 5 7 8 9 10 11 13 15 16 16 15 15 16 16 15 14 15 14 13 12 13 14 15 13 12 12 12 11 10 10 8 9 8 9 13
3 2 1 2 1 2 3 4 7 7 9 10 9 13 15 15 16 16 15 15 15 16 16 14 14 15 14 12 11 13 15 14 13 12 13 13 12 10 9 8 9 8 8 10
4 3 3 3 1 4 6 7 7 8 10 12 13 15 15 16 17 17 17 16 15 16 16 15 15 15 15 14 13 13 14 13 12 13 13 12 11 11 9 7 7 7 7 8
2 3 3 1 4 8 7 8 9 11 12 13 14 15 15 16 18 19 17 17 17 16 15 14 15 16 18 16 15 15 14 12 12 12 12 11 11 10 10 9 7 8 8 9
1 1 1 3 6 6 10 11 12 13 13 16 17 16 15 16 19 20 19 17 17 17 16 16 17 17 18 17 16 15 14 13 12 12 11 10 9 9 9 9 10 11 11 14
Wind_Direction
17 42 275 241 208 199 178 219 279 294 339 57 63 35 2 8 57 88 103 112 114 108 103 108 118 128 134 147 157 168 179 190 177 185 214 235 251 259 268 272 282 291 288 284
11 306 254 231 191 176 183 145 283 307 2 55 56 20 348 3 5 83 126 127 125 119 117 132 146 153 156 162 169 172 183 185 188 191 200 218 258 283 281 301 314 317 317 309
233 263 281 142 131 137 164 167 205 278 355 26 41 357 352 349 18 46 82 120 135 151 160 174 178 180 171 178 182 182 187 190 199 196 105 29 10 345 331 323 317 316 317 312
281 285 330 71 144 146 227 240 210 170 64 333 30 304 305 335 1 29 135 159 174 188 191 195 198 203 204 205 195 190 188 192 202 175 168 187 234 273 274 292 298 307 308 308
313 322 356 7 311 193 192 63 75 67 119 48 25 104 291 331 296 238 221 210 210 211 211 213 215 216 219 215 202 200 189 202 206 193 192 205 244 256 285 299 303 307 308 307
285 313 320 293 18 38 102 70 50 48 65 55 321 236 282 256 232 224 222 225 227 226 227 233 238 233 226 212 199 193 193 213 219 211 205 210 239 266 293 305 308 311 309 308
337 335 338 8 23 15 61 69 23 4 10 271 289 230 255 265 252 228 222 228 239 242 243 249 252 240 227 212 203 196 196 219 226 219 223 226 231 244 267 290 301 309 313 313
339 313 309 339 190 230 92 129 151 208 237 282 324 245 256 313 331 305 267 276 298 294 288 283 273 252 237 225 211 200 203 222 227 228 235 229 225 234 256 272 286 296 300 301
195 265 295 327 297 155 142 144 160 140 176 260 286 292 311 356 7 8 10 20 5 352 353 346 340 326 310 292 267 232 231 243 243 238 235 234 236 240 253 269 276 288 295 304
172 240 300 322 15 28 118 141 102 121 161 248 284 292 300 331 341 0 17 20 17 19 22 20 22 22 20 14 7 2 334 297 285 270 255 247 243 244 250 263 283 296 304 309
134 170 306 352 18 341 20 77 94 110 154 172 250 269 343 340 346 11 23 25 25 28 28 26 25 24 25 24 21 11 357 340 322 299 279 264 253 246 249 261 276 291 301 313
113 122 289 294 283 273 262 134 138 124 259 190 210 258 32 47 35 44 38 31 29 31 29 27 24 23 22 18 10 4 355 342 326 310 289 270 259 250 249 257 269 282 298 313
141 110 31 344 338 344 40 148 144 131 135 175 195 240 73 45 39 29 29 21 21 23 23 22 22 19 13 6 0 356 351 339 329 321 304 282 264 251 247 250 259 269 287 312
120 125 169 213 232 240 276 275 161 145 192 227 221 193 44 16 18 9 11 12 15 17 16 13 9 3 358 353 348 346 343 340 334 328 316 296 274 254 246 242 245 252 263 291
115 185 222 238 247 231 263 309 339 197 223 222 243 105 26 3 357 350 356 2 9 8 3 360 353 346 343 342 339 338 335 335 335 330 324 309 293 268 249 240 237 240 245 256
79 194 215 282 284 219 21 6 20 35 22 53 88 65 358 347 350 348 351 356 357 352 347 341 337 333 331 329 327 326 324 325 329 330 325 320 310 286 259 245 235 231 234 239
74 133 132 277 313 37 18 1 39 64 33 29 65 18 343 347 346 336 330 335 337 335 330 325 321 317 313 310 308 306 305 308 315 321 324 327 319 302 279 257 239 230 224 218
132 120 137 281 4 255 104 55 75 101 80 59 49 351 336 320 310 295 290 291 305 311 311 308 306 304 300 297 294 291 294 297 301 307 313 319 320 308 293 268 246 235 222 211
114 128 103 91 222 131 103 19 6 326 109 42 351 328 318 310 302 281 261 258 280 291 294 294 292 291 289 289 288 289 290 290 292 294 298 305 313 313 302 280 261 240 221 213
48 68 90 75 322 304 8 323 323 284 202 8 319 309 313 326 319 295 293 299 300 300 299 296 294 290 287 285 283 280 283 284 282 282 284 288 294 304 305 290 274 249 223 215
10 23 51 49 345 84 319 312 327 2 304 305 301 297 299 289 274 281 291 296 296 298 299 299 299 295 288 287 284 278 279 277 275 275 277 280 282 287 295 297 288 263 229 211
35 34 23 12 1 360 340 5 31 276 277 282 289 288 288 286 287 292 295 293 292 294 294 294 294 293 292 289 285 282 280 279 280 279 277 277 277 283 298 301 297 276 238 212
56 40 23 67 108 250 277 257 256 261 276 283 284 286 291 291 291 292 291 289 289 287 287 285 283 286 286 282 276 275 278 280 281 279 275 275 275 273 276 286 294 289 253 218
14 3 95 82 327 283 277 267 268 270 272 279 283 286 288 288 288 288 289 287 284 283 282 281 280 281 282 278 274 270 274 277 276 275 274 274 274 275 273 275 279 283 268 228
335 23 71 22 293 301 290 278 282 293 295 293 291 289 287 286 288 288 290 288 286 285 282 278 277 278 278 276 272 271 272 271 272 272 272 272 270 270 271 272 271 271 266 240
306 123 126 250 256 258 273 282 292 293 289 289 292 293 287 284 286 288 290 289 288 287 285 283 280 279 279 276 272 269 267 264 264 268 269 269 270 270 270 274 282 267 263 251
Height
1501 1506 1509 1506 1504 1503 1505 1508 1509 1502 1494 1497 1500 1500 1496 1493 1492 1492 1492 1493 1494 1495 1498 1501 1504 1506 1509 1511 1512 1514 1514 1515 1515 1514 1514 1513 1512 1511 1510 1508 1506 1504 1502 1500
1507 1508 1500 1497 1499 1502 1504 1507 1506 1500 1495 1497 1501 1502 1498 1496 1496 1495 1495 1495 1495 1497 1499 1501 1504 1506 1508 1510 1511 1512 1513 1513 1513 1513 1512 1511 1509 1508 1506 1504 1502 1499 1497 1495
1507 1502 1495 1496 1498 1502 1504 1506 1504 1503 1500 1500 1502 1508 1504 1500 1498 1497 1497 1497 1498 1498 1500 1502 1504 1506 1507 1509 1510 1511 1512 1512 1512 1511 1510 1509 1507 1505 1502 1500 1497 1495 1492 1490
1503 1497 1495 1496 1498 1500 1506 1498 1499 1502 1509 1516 1511 1524 1510 1504 1502 1500 1499 1498 1499 1500 1500 1502 1503 1505 1506 1508 1509 1510 1510 1510 1510 1509 1507 1506 1504 1501 1499 1496 1493 1490 1487 1484
1504 1498 1497 1498 1497 1495 1499 1497 1501 1506 1510 1519 1517 1525 1518 1506 1504 1502 1499 1498 1498 1499 1500 1501 1502 1504 1505 1506 1507 1508 1508 1508 1508 1506 1505 1503 1500 1498 1495 1492 1489 1486 1483 1480
1501 1497 1496 1495 1494 1494 1496 1502 1509 1516 1523 1532 1522 1525 1523 1511 1502 1499 1497 1497 1497 1498 1499 1500 1501 1503 1504 1504 1505 1506 1506 1506 1505 1503 1502 1499 1497 1494 1491 1488 1485 1481 1478 1474
1508 1501 1496 1494 1496 1497 1501 1517 1535 1538 1543 1538 1523 1524 1521 1501 1497 1496 1495 1495 1496 1497 1498 1499 1500 1501 1502 1502 1503 1503 1503 1503 1502 1500 1498 1496 1493 1490 1487 1484 1480 1476 1473 1469
1519 1519 1500 1495 1497 1501 1503 1514 1536 1545 1547 1539 1526 1524 1510 1499 1496 1495 1495 1496 1497 1497 1497 1497 1498 1499 1500 1500 1500 1501 1501 1500 1499 1497 1495 1493 1490 1487 1483 1480 1477 1473 1469 1465
1519 1517 1498 1495 1494 1496 1506 1513 1516 1532 1535 1541 1532 1519 1506 1498 1498 1498 1497 1497 1497 1496 1496 1496 1496 1496 1497 1497 1498 1498 1498 1497 1496 1494 1492 1489 1486 1483 1480 1477 1473 1470 1466 1462
1507 1514 1503 1499 1495 1497 1500 1509 1523 1533 1542 1545 1532 1525 1524 1513 1509 1505 1502 1500 1498 1496 1495 1494 1494 1494 1494 1494 1495 1495 1495 1494 1493 1491 1488 1486 1483 1480 1477 1473 1470 1466 1463 1459
1503 1515 1512 1506 1506 1507 1506 1512 1522 1532 1534 1543 1544 1534 1519 1518 1514 1511 1508 1505 1501 1498 1496 1495 1494 1494 1493 1493 1493 1492 1492 1490 1489 1487 1485 1482 1480 1476 1473 1470 1467 1463 1459 1456
1507 1517 1522 1514 1505 1503 1503 1507 1518 1527 1530 1537 1540 1536 1518 1517 1515 1513 1510 1508 1505 1502 1499 1497 1495 1494 1493 1492 1491 1490 1489 1487 1485 1482 1480 1478 1475 1473 1470 1467 1464 1460 1457 1453
1506 1517 1528 1526 1519 1507 1505 1507 1511 1520 1528 1537 1539 1530 1518 1517 1516 1514 1512 1509 1506 1503 1500 1498 1496 1494 1493 1491 1490 1488 1485 1483 1480 1477 1474 1472 1470 1468 1466 1463 1461 1458 1454 1451
1500 1513 1522 1526 1520 1510 1508 1506 1509 1518 1526 1528 1524 1520 1519 1518 1517 1515 1513 1511 1508 1505 1502 1499 1497 1495 1493 1490 1488 1485 1482 1479 1475 1472 1469 1466 1464 1462 1461 1459 1457 1455 1452 1449
1500 1510 1510 1509 1505 1506 1507 1508 1508 1512 1515 1520 1517 1520 1523 1521 1519 1517 1515 1511 1508 1505 1502 1499 1496 1494 1490 1487 1484 1481 1478 1474 1471 1467 1463 1460 1457 1455 1454 1453 1453 1451 1449 1447
1501 1506 1508 1508 1502 1504 1509 1510 1511 1515 1517 1518 1520 1524 1524 1522 1520 1517 1514 1511 1507 1504 1501 1498 1495 1492 1489 1485 1482 1478 1474 1471 1467 1463 1459 1455 1451 1449 1448 1447 1447 1447 1445 1444
1506 1509 1514 1516 1508 1506 1518 1521 1518 1522 1523 1523 1523 1528 1524 1521 1519 1517 1513 1510 1506 1503 1500 1496 1493 1490 1486 1483 1479 1475 1472 1467 1464 1459 1455 1451 1446 1443 1442 1441 1441 1441 1441 1441
1508 1512 1518 1520 1513 1521 1531 1523 1522 1524 1526 1526 1526 1526 1525 1522 1518 1514 1510 1507 1504 1501 1497 1494 1490 1486 1482 1479 1475 1471 1467 1464 1460 1455 1451 1447 1442 1439 1436 1435 1435 1435 1436 1436
1506 1512 1520 1525 1522 1523 1526 1525 1525 1525 1526 1528 1527 1524 1521 1518 1514 1509 1507 1505 1502 1498 1493 1489 1485 1481 1477 1473 1469 1465 1461 1458 1454 1450 1447 1442 1438 1434 1431 1429 1428 1428 1429 1430
1510 1512 1521 1525 1523 1527 1535 1528 1525 1525 1525 1528 1526 1522 1519 1516 1515 1509 1505 1501 1496 1492 1487 1482 1478 1473 1469 1466 1462 1458 1454 1451 1447 1444 1441 1437 1433 1429 1426 1423 1421 1421 1421 1423
1522 1524 1528 1529 1528 1531 1536 1529 1524 1530 1532 1527 1524 1521 1517 1515 1511 1504 1499 1495 1490 1486 1481 1476 1471 1466 1462 1458 1454 1450 1446 1443 1440 1437 1434 1430 1427 1424 1420 1416 1414 1412 1412 1414
1530 1530 1531 1531 1531 1536 1535 1531 1533 1534 1527 1524 1520 1517 1513 1508 1503 1498 1493 1488 1483 1478 1474 1469 1464 1459 1455 1451 1447 1441 1438 1435 1432 1428 1425 1423 1420 1417 1413 1410 1406 1404 1403 1405
1534 1535 1533 1535 1539 1537 1534 1533 1531 1528 1524 1520 1516 1512 1507 1501 1496 1491 1486 1481 1475 1471 1466 1461 1456 1450 1446 1443 1439 1433 1429 1426 1423 1420 1417 1414 1412 1409 1407 1403 1400 1396 1395 1394
1535 1534 1534 1535 1535 1534 1531 1529 1527 1524 1520 1516 1511 1506 1501 1495 1489 1484 1478 1472 1467 1461 1457 1452 1446 1441 1436 1432 1429 1425 1420 1417 1413 1410 1407 1405 1403 1400 1398 1396 1393 1389 1386 1386
1538 1535 1536 1537 1535 1531 1528 1526 1523 1519 1515 1510 1505 1501 1495 1489 1482 1476 1469 1463 1457 1451 1446 1441 1436 1430 1425 1421 1417 1414 1411 1407 1403 1400 1398 1396 1394 1392 1389 1387 1384 1381 1379 1378
1536 1537 1537 1537 1533 1531 1526 1522 1518 1513 1508 1504 1498 1492 1487 1481 1474 1467 1460 1453 1447 1441 1435 1429 1424 1418 1413 1409 1405 1402 1400 1397 1393 1390 1388 1386 1385 1383 1381 1378 1375 1373 1371 1370